Home   Weather   Greater Sudbury   Past weeks

Flag for Canada Past Weather in Greater Sudbury, Ontario, Canada — Yesterday and Last 2 Weeks

Now
30 °F

Light freezing rain. Low clouds.


Feels Like: 19 °F
Forecast: 16 / 35 °F
Wind: 16 mph from East

Location: Sudbury

Current Time: Feb 25, 2017 at 2:03:23 am

Latest Report: Feb 25, 2017 at 1:00 am


Visibility: 10 mi

Pressure: 29.50 "Hg

Humidity: 93%

Dew Point: 28 °F

Location of Greater SudburyLocation

Past Weather in Greater Sudbury — Graph

°F

Greater Sudbury Temperature Yesterday

Maximum temperature yesterday: 30 °F (at 12:00 am)
Minimum temperature yesterday: 23 °F (at 2:00 pm)
Average temperature yesterday: 26 °F

High & Low Weather Summary for the Past Weeks

 TemperatureHumidityPressure
High45 °F (Feb 18, 3:00 pm)100% (Feb 14, 10:00 am)30.45 "Hg (Feb 14, 10:00 am)
Low-4 °F (Feb 10, 2:00 am)29% (Feb 20, 5:00 pm)29.40 "Hg (Feb 18, 11:00 am)
Average24 °F83%29.81 "Hg
* Reported Feb 10 12:00 am — Feb 25 12:00 am, Greater Sudbury, Weather by CustomWeather, © 2017

Note: Actual official high and low records may vary slightly from our data, if they occured in-between our weather recording intervals... More about our weather records

Advertising

Greater Sudbury Weather History for the Previous 24 Hours

Scroll right to see more
 ConditionsComfort  
Time TempWeatherWind HumidityBarometerVisibility
12:00 am
Sat, Feb 25
28 °FLight freezing rain. Ice fog.24 mph100%29.49 "Hg5 mi
11:24 pm
Fri, Feb 24
28 °FLight freezing rain. Ice fog.12 mph93%29.59 "Hg6 mi
11:00 pm27 °FLight snow. Ice fog.15 mph93%29.57 "Hg6 mi
10:30 pm27 °FLight mixture of precip. Mostly cloudy.15 mph93%29.60 "Hg3 mi
10:00 pm27 °FSleet. Mostly cloudy.17 mph93%29.63 "Hg1 mi
9:42 pm27 °FSleet. Low clouds.15 mph93%29.65 "Hg2 mi
9:00 pm27 °FLight mixture of precip. Low clouds.23 mph86%29.63 "Hg3 mi
8:00 pm23 °FLight mixture of precip. Mostly cloudy.20 mph93%29.75 "Hg2 mi
7:00 pm23 °FLight freezing rain. Low clouds.23 mph93%29.73 "Hg6 mi
6:00 pm23 °FLight freezing rain. Mostly cloudy.20 mph86%29.77 "Hg4 mi
5:00 pm23 °FLight snow. Mostly cloudy.18 mph86%29.81 "Hg5 mi
4:00 pm23 °FLight snow. Mostly cloudy.16 mph93%29.80 "Hg2 mi
3:00 pm23 °FLight snow. Ice fog.20 mph93%29.83 "Hg1 mi
2:21 pm23 °FLight snow. Ice fog.22 mph93%29.81 "Hg1 mi
2:00 pm23 °FLight snow. Ice fog.22 mph93%29.82 "Hg1 mi
1:14 pm25 °FSleet. Ice fog.18 mph86%29.83 "Hg1 mi
1:00 pm25 °FSleet. Low clouds.20 mph86%29.84 "Hg2 mi
12:00 pm25 °FLight snow. Ice fog.16 mph93%29.87 "Hg1 mi
11:40 am25 °FLight snow. Low clouds.18 mph93%29.88 "Hg1 mi
11:00 am28 °FLight snow. Low clouds.15 mph80%29.88 "Hg2 mi
10:00 am28 °FLight snow. Overcast.16 mph80%29.90 "Hg10 mi
9:00 am28 °FOvercast.10 mph80%29.93 "Hg15 mi
8:00 am28 °FOvercast.6 mph80%29.93 "Hg15 mi
7:00 am28 °FOvercast.9 mph80%29.93 "Hg15 mi
6:00 am28 °FPassing clouds.7 mph86%29.92 "Hg15 mi
5:00 am28 °FMostly cloudy.8 mph86%29.91 "Hg15 mi
4:00 am28 °FOvercast.10 mph86%29.91 "Hg15 mi
3:00 am28 °FMostly cloudy.7 mph93%29.94 "Hg15 mi
2:00 am30 °FMostly cloudy.6 mph86%29.95 "Hg15 mi
Weather by CustomWeather, © 2017

See weather overviewHow to use our weather pages